Regional Weather Roundup
Issued by NWS

Home | Current Version | Previous Version | Graphics & Text | Print | Product List | Glossary On
Versions: 1 2 3 4 5 6 7 8 9 10 11 12 13 14 15 16 17 18 19 20 21 22 23 24 25 26 27 28 29 30 31 32 33 34 35 36 37 38 39 40 41 42 43 44 45 46 47 48 49 50
579
ASUS45 KBOI 251110
RWRID

IDAHO REGIONAL WEATHER ROUNDUP
NATIONAL WEATHER SERVICE BOISE ID
500 AM MDT SUN JUN 25 2017

NOTE: "FAIR" INDICATES FEW OR NO CLOUDS BELOW 12000 FEET
WITH NO SIGNIFICANT WEATHER AND/OR OBSTRUCTIONS TO VISIBILITY

IDZ012-014-251200-
SOUTHWEST IDAHO


CITY           SKY/WX    TMP DP  RH WIND       PRES   REMARKS
BOISE          CLEAR     62  40  44 S7        30.09S
CALDWELL       CLEAR     58  49  72 N5        30.08S
MOUNTAIN HOME  CLEAR     55  40  56 NE6       30.10S
$$

IDZ016-017-251200-
SOUTHCENTRAL IDAHO


CITY           SKY/WX    TMP DP  RH WIND       PRES   REMARKS
BURLEY         CLEAR     49  41  74 S3        30.19R
JEROME         CLEAR     56  34  43 E8        30.18S
TWIN FALLS     CLEAR     53  34  48 S8        30.18S
$$

IDZ019>023-251200-
SOUTHEAST IDAHO


CITY           SKY/WX    TMP DP  RH WIND       PRES   REMARKS
IDAHO FALLS    CLEAR     49  45  86 N8        30.26R
POCATELLO      CLEAR     49  43  80 E3        30.24R
REXBURG        CLEAR     50  43  77 NE9       30.26S
$$

IDZ006-010-011-018-031-032-251200-
CENTRAL IDAHO MOUNTAINS


CITY           SKY/WX    TMP DP  RH WIND       PRES   REMARKS
MCCALL         CLEAR     47  37  68 CALM      30.23F
HAILEY         CLEAR     52  41  66 NW10      30.29S
STANLEY          N/A     36  32  85 S3        30.37S
SALMON         CLEAR     46  37  71 CALM      30.25S
CHALLIS        CLEAR     50  36  58 CALM      30.29R
$$

IDZ002-004-006-007-026-251200-
NORTHERN IDAHO


CITY           SKY/WX    TMP DP  RH WIND       PRES   REMARKS
LEWISTON       CLEAR     60  45  57 CALM      30.09S
LOWELL           N/A     54  50  86 CALM      30.17S
COEUR D`ALENE  CLEAR     57  43  59 NE6       30.15S
MULLAN PASS    CLEAR     57  31  37 SE9       30.33S
$$




USA.gov is the U.S. government's official web portal to all federal, state and local government web resources and services.